星链-1227 (STARLINK-1227 )

导读

STARLINK-1227是美国于2020年2月17日8点发射的星链卫星,隶属于SpaceX打造的星链卫星互联网星座项目。星链计划旨在为全球提供高速低延迟宽带互联网服务,该卫星发射后进入预定轨道,是星链星座组网进程中的组成部分,助力星链系统逐步实现全球覆盖的目标。

基本信息
目录编号:
45230
目录名称:
STARLINK-1227
国际标识:
2020-012BE
轨道中心:
EARTH
卫星名称:
星链-1227
卫星全名:
星链-1227 (STARLINK-1227 )
卫星状态:
在轨 (已飞行2308 天)
发射日期:
2020-02-17 UTC
国别 :
美国 (US)
星等 :
--
轨道信息
数据来源 国际轨道数据
星历时间: 2026-06-11T22:46:20+0800
1天前
查看轨道信息
半长轴: 6810.385km
偏心率: 0.0003333
轨道倾角: 53.154°
近地点辐角 287.971°
升交点赤经 276.726°
平近点角 72.093°
近地点: 429.978km
远地点: 434.518km
周期: 93.222分钟
每日圈数: 15.44704
详细信息
固有亮度:
5
最大亮度:
2.5
卫星平台:
Starlink V1.0
覆盖范围:
全球
运营商:
太空探索技术公司
运营商所在国:
美国
制造商(研发单位):
太空探索技术公司
制造商所在国:
美国
使用方式:
暂无
卫星简介
星链(Starlink)计划是由太空探索技术公司(SpaceX)提出的一个巨型低轨卫星互联网星座项目,计划在2019年至2024年间在太空搭建由约1.2万颗卫星组成的“星链”网络,其中1584颗将部署在地球上空550千米处的近地轨道,并从2020年开始工作。该卫星仍在工作。
2D轨道图
3D轨道图
轨道高度分析图
轨道倾角分析图
轨道综合分析图
查看轨道综合分析图